Torna al catalogo

DELTA 1 R/B

AttivoSSO
NORAD 4322·ROCKET BODY·🇺🇸 United States

Lanciato Jan 23, 1970 da Vandenberg Space Force Base

Loading…

Prossimi Passaggi (prossime 24 ore)

TLE

AggiornatoSource: Space-Track

Epoca: Sep 14, 2026, 17:46 UTC

1 04322U 70008C   26257.74092400 -.00000038  00000-0  24808-4 0  9992
2 04322 101.3390 256.1740 0028531 119.3522  53.5956 12.51931109588137

Traccia DELTA 1 R/B in tempo reale con AllMySat

Download on the App Store